Погода в Паневежисе

Поиск расширенной информации на нашем сайте:

Полезная информация:

Новости сайта



02.01.2020
Опубликован Долгосрочный прогноз погоды по городам России и ближнего зарубежья на январь 2020 года.
Карты: Прогноз на январь и февраль 2020 года, Сравнение прогнозируемой аномалии приземной температуры воздуха на январь 2020 года по разным моделям.




Погода в Паневежисе - сегодня

Время (UTC), дата Ветер
(°,м/с) 
Видим.   Явления Облачность Т
(°С)
Тd
(°С)
f(%) Тe
(°С)
Pmin
(гПа)
dP
(гПа)
Po
(мм)
O2
(г/м3)
Тmin Tmax R s Состояние
почвы
06 01.06.20 040 (СВ) 5-9{10}  20000 м    ясно 
+12.2 +0 43 +11  1022.5  0.1  762  294  +6.6         
09 01.06.20 020 (С) 7-12{12}  19000 м    3/0 
+14.6 -0.4 36 +14  1021.6  -0.8  761  291           
12 01.06.20 010 (С) 5-11{12}  20000 м    3/0 
+17.3 +2 36 +17  1019.5  -2.1  759  287           
15 01.06.20 020 (С) 4-8{11}  20000 м    9/0 2000 м 
+15.9 +2.6 41 +16  1018.6  -0.9  759  289           
18 01.06.20 070 (В) 3-6{10}  20000 м    9/0 
+13.6 +1.6 44 +14  1018.1  -0.5  758  291    +17.9       
21 01.06.20 040 (СВ) 2-4{06}  20000 м    ясно 
+9.4 +1.3 57 +9  1019.3  759  295           
00 02.06.20 030 (СВ) 2-4{05}  20000 м    ясно 
+7.1 +1.2 66 +7  1018.4  -0.9  758  298           
03 02.06.20 010 (С) 2-4{05}  20000 м    ясно 
+6.8 +1.4 68 +7  1017.5  -0.9  758  298           
06 02.06.20 030 (СВ) 3-5{06}  20000 м    ясно 
+12.4 +3.8 56 +12  1016.7  -0.7  757  291  +5.8         
09 02.06.20 060 (СВ) 6-11{12}  20000 м    4/4 1500 м 
+16.4 +2.4 39 +16  1015  -1.6  756  287           
12 02.06.20 030 (СВ) 6-10{12}  20000 м    8/0 2000 м 
+17.9 +1.8 34 +18  1013.4  -1.5  755  285           
15 02.06.20 050 (СВ) 5-10{12}  20000 м    4/0 
+17.7 +1.2 33 +18  1011.9  -1.5  754  285           
18 02.06.20 060 (СВ) 5-8{10}  20000 м    9/0 2000 м 
+16.7 +1.8 37 +17  1011.2  -0.7  753  286    +18.6       
21 02.06.20 100 (В) 3-4{09}  20000 м    9/0 
+13.1 +4.3 55 +13  1011.6  0.3  753  289           
00 03.06.20 040 (СВ) 1-3{05}  20000 м    9/0 
+11.4 +5.5 67 +13  1010.1  -1.5  752  290      0.0     
03 03.06.20 тихо () -2{06}  20000 м    9/9 1500 м 
+10.9 +6.2 73 +11  1009.4  -0.8  752  290           
06 03.06.20 070 (В) 2-5{06}  19000 м  в посл. час дождь  9/9 300 м 
+11.2 +8.4 83 +11  1009.2  0.1  752  289  +10.6    0.2     
09 03.06.20 100 (В) 3-5{07}  20000 м    9/9 600 м 
+12.8 +8 73 +13  1009.4  0.2  752  288      0.2     
12 03.06.20 050 (СВ) 2-5{07}  20000 м    10/10 600 м 
+14.3 +8.3 67 +15  1008.6  -0.8  751  286           
15 03.06.20 050 (СВ) 5-7{08}  20000 м    6/0 
+15.8 +7.5 58 +16  1007.3  -1.2  750  285           
18 03.06.20 040 (СВ) 2-4{08}  20000 м    ясно 
+14.8 +7.7 62 +15  1006.7  -0.6  750  285    +16.3       
21 03.06.20 040 (СВ) 1-2{06}  20000 м    3/0 
+10.1 +7.4 83 +11  1006.2  -0.7  749  290           
00 04.06.20 тихо () -0{03}  16000 м    4/0 
+7.8 +6.2 90 +8  1005.3  -0.9  749  292           
03 04.06.20 тихо () -2{03}  20000 м    9/9 1500 м 
+8.6 +7.5 93 +9  1004.3  -1  748  291           
06 04.06.20 050 (СВ) 2-3{03}  17000 м    9/0 
+12.9 +9.3 79 +13  1003.3  -0.9  747  286  +7.4         
Время (UTC), дата Ветер
(°,м/с) 
Видим.   Явления Облачность Т
(°С)
Тd
(°С)
f(%) Тe
(°С)
Pmin
(гПа)
dP
(гПа)
Po
(мм)
O2
(г/м3)
Тmin Tmax R s Состояние
почвы

Для получения пояснительной информации подведите курсор к названию столбца.

ПОГОДА в Паневежисе - архив

Всё, что Вы хотите узнать о погоде в Паневежисе - удобно и подробно!

Выберите нужную дату (начиная с 1 января 2019* года) и нажмите кнопку "Найти".
Будут отображены архивные сводки погоды по пункту Паневежис, начиная с указанной даты.


Отображать данные в формате CSV (для использования в таблицах Excel)


Внимание! Наш архив погоды предназначен исключительно для личного некоммерческого использования в познавательных целях. Если Вам необходимы официальные справки о состоянии погоды (для производственных, юридических, коммерческих и т.п. целей), обращайтесь в органы Росгидромета.

*Примечание: данная дата относится к архиву по метеостанциям СССР (Россия, СНГ, Балтия).
Архив по метеостанциям Зарубежной Европы и Азии (кроме Китая) хранится 10 дней, по другим регионам земного шара (Китай, Африка, Америка, Австралия, Океания) - 1 день.

Паневежис - район местоположения метеостанции


Название, широта, долгота, высота метеостанции:
Паневежис 55.8°ш. 24.4°д. 58 м над ур. моря [Литва]

Дополнительная информация

В oтличие oт бoльшинства пoгoдных сайтoв мы публикуем пoдрoбную метеoинфoрмацию в детальнoм прoфессиoнальнoм фoрмате.

Характеристики температуры и влажнoсти вoздуха измеряются на высoте 2 м в тени вдали oт зданий и деревьев.
Скoрoсть ветра измеряется на высoте 10 м (на урoвне рoста челoвека скoрoсть ветра ниже в 1.5-2 раза). Если метеoстанция нахoдится в гoрoде или в лесу, тo скoрoсть ветра занижена на 2-4 м/с пo сравнению с oткрытым местoм. Скoрoсть ветра над акватoриями крупных рек и oзёр, а также на вершинах хoлмoв на 2-5 м/с выше, чем в oбычных услoвиях.
Атмoсфернoе давление в разных тoчках местнoсти мoжет значительнo oтличаться oт давления на метеoстанции, в зависимoсти oт услoвий рельефа (при пoдъёме на 10 м давление пoнижается примернo на 1 мм рт.ст.).